Voltar ao catálogo

BREEZE-M DEB

LostHEO
NORAD 34261·DEBRIS·🇷🇺 Russia

Lançado Feb 28, 2006 de Baikonur Cosmodrome

Loading…

Próximas Passagens (próximas 24 horas)

TLE

ObsoletoSource: Space-Track

Época: Apr 27, 2024, 07:39 UTC

1 34261U 06006CC  24118.31932988  .00036187  00000-0  23924-1 0  9993
2 34261  52.1159 110.6486 4013684 193.4630 151.6081  7.12023944244777

Acompanhe BREEZE-M DEB em tempo real com AllMySat

Download on the App Store